Location: Star Hoppers Observatory
(42.7905°N, 83.6127°W)
Time: 17:26:56
(UTC-04:00)

Amateur Radio Satellites - All Passes

Search period start: 26 April 2017 16:56
Search period end: 27 April 2017 16:56
Location: Star Hoppers Observatory, 42.7905°N, 83.6127°W

Satellite Date Start Highest point End Downlink Frequencies (MHz)
Time Altitude Azimuth
DOVE 4 26 Apr 17:01:48 17:03:52 12° 59° (ENE) 17:05:54 437.250
YUBILEINY 26 Apr 17:04:25 17:13:08 71° 267° (W) 17:21:51 435.215
MOZHAYETS 4 26 Apr 17:06:53 17:11:30 80° 101° (E) 17:16:08
ITAMSAT 1 26 Apr 17:11:11 17:15:15 23° 266° (W) 17:19:21 435.822/435.867
BEESAT 26 Apr 17:11:35 17:16:11 49° 289° (WNW) 17:20:45 436.000
KKS-1 26 Apr 17:21:40 17:24:55 20° 93° (E) 17:28:08 437.445
BEESAT 2 26 Apr 17:30:57 17:32:21 11° 324° (NW) 17:33:45 435.950
XW-2B 26 Apr 17:40:51 17:41:56 11° 63° (ENE) 17:42:59 145.730 - 145.750
LilacSat-2 26 Apr 17:50:20 17:52:33 15° 66° (ENE) 17:54:48 437.200
KAITUO 1B 26 Apr 17:50:43 17:51:57 11° 63° (ENE) 17:53:10 145.475/437.950
XW-2C 26 Apr 17:51:32 17:53:43 15° 65° (ENE) 17:55:53 145.795 - 145.815
ITUPSAT 1 26 Apr 17:52:50 17:56:26 22° 296° (WNW) 18:00:01 437.325
STARS 26 Apr 17:54:05 17:57:10 19° 93° (E) 18:00:15 437.465
CUBESAT XI-V 26 Apr 17:57:18 18:01:53 47° 99° (E) 18:06:25 437.345
AO-7 26 Apr 17:57:44 18:03:37 21° 268° (W) 18:09:33 .
XW-2F 26 Apr 18:16:02 18:19:11 27° 70° (ENE) 18:22:22 145.980 - 146.000
CUTE-I 26 Apr 18:16:29 18:21:19 36° 67° (ENE) 18:26:09 437.470
NUDT-PHONESAT 26 Apr 18:27:56 18:31:09 30° 71° (ENE) 18:34:23 437.300
RS-15 26 Apr 18:29:04 18:40:42 54° 249° (WSW) 18:51:47 29.354- 29.394
DOVE 4 26 Apr 18:35:25 18:40:44 83° 76° (ENE) 18:45:58 437.250
MOZHAYETS 4 26 Apr 18:46:13 18:48:00 12° 300° (WNW) 18:49:49
KKS-1 26 Apr 18:57:28 19:01:38 40° 290° (WNW) 19:05:45 437.445
YUBILEINY 26 Apr 19:04:39 19:08:12 13° 287° (WNW) 19:11:47 435.215
XW-2D 26 Apr 19:04:57 19:08:41 68° 260° (W) 19:12:25 145.860 - 145.880
HO-68 26 Apr 19:11:11 19:17:37 38° 62° (ENE) 19:24:04 435.675
XW-2B 26 Apr 19:11:57 19:15:37 57° 259° (W) 19:19:20 145.730 - 145.750
KAITUO 1B 26 Apr 19:21:53 19:25:30 53° 261° (W) 19:29:07 145.475/437.950
LilacSat-2 26 Apr 19:23:00 19:26:31 39° 262° (W) 19:30:05 437.200
XW-2C 26 Apr 19:24:04 19:27:35 39° 262° (W) 19:31:08 145.795 - 145.815
STARS 26 Apr 19:29:35 19:33:41 41° 290° (WNW) 19:37:46 437.465
CUBEBUG 2 26 Apr 19:33:43 19:36:16 16° 64° (ENE) 19:38:48 437.445
CUBESAT XI-V 26 Apr 19:35:30 19:38:54 20° 296° (WNW) 19:42:17 437.345
XW-2F 26 Apr 19:50:29 19:53:19 20° 266° (W) 19:56:10 145.980 - 146.000
CUTE-I 26 Apr 19:56:40 20:01:21 31° 264° (W) 20:06:05 437.470
AAUSAT CUBESAT 2 26 Apr 19:57:35 20:00:26 18° 65° (ENE) 20:03:18 437.432
NUDT-PHONESAT 26 Apr 20:02:35 20:05:07 18° 267° (W) 20:07:40 437.300
CUTE 1.7 + AOD 2 26 Apr 20:03:12 20:07:22 65° 75° (ENE) 20:11:35 437.475
NO-84 26 Apr 20:05:46 20:09:08 32° 133° (SE) 20:12:16 435.350 FM
STRAND 1 26 Apr 20:07:27 20:11:26 23° 93° (E) 20:15:24 437.568
XW-2A 26 Apr 20:12:20 20:15:42 87° 258° (WSW) 20:19:03 145.665 - 145.685
ZACube-1 26 Apr 20:16:31 20:18:56 15° 64° (ENE) 20:21:21 437.345
DOVE 4 26 Apr 20:16:38 20:18:57 13° 272° (W) 20:21:16 437.250
AO-73 26 Apr 20:23:15 20:25:49 16° 65° (ENE) 20:28:23 145.935
SEEDS 26 Apr 20:23:21 20:27:29 71° 76° (ENE) 20:31:42 437.485
M-CUBED/EXP-1 PRIME 26 Apr 20:35:15 20:38:42 25° 99° (E) 20:41:56 437.505
Oscar 11 26 Apr 20:38:12 20:41:22 20° 66° (ENE) 20:44:32 .
O/OREOS (USA 219) 26 Apr 20:48:26 20:52:58 57° 65° (ENE) 20:57:26 437.305
UWE-3 26 Apr 20:55:04 20:59:18 68° 76° (ENE) 21:03:29 435.000/436.395/437.385
HO-68 26 Apr 20:58:26 21:05:12 45° 261° (W) 21:12:02 435.675
CUBEBUG 2 26 Apr 21:08:14 21:12:30 51° 260° (W) 21:16:41 437.445
OBJECT BX 26 Apr 21:25:02 21:26:26 12° 64° (ENE) 21:27:50 145.990 - 145.960
AAUSAT CUBESAT 2 26 Apr 21:31:41 21:35:36 40° 262° (W) 21:39:32 437.432
CUTE 1.7 + AOD 2 26 Apr 21:42:26 21:43:38 11° 271° (W) 21:44:50 437.475
NO-84 26 Apr 21:43:26 21:46:40 32° 328° (NNW) 21:49:40 435.350 FM
STRAND 1 26 Apr 21:45:57 21:50:48 45° 290° (WNW) 21:55:38 437.568
ZACube-1 26 Apr 21:50:46 21:54:50 49° 261° (W) 21:58:53 437.345
AO-73 26 Apr 21:57:42 22:01:43 45° 261° (W) 22:05:42 145.935
AO-85 26 Apr 21:59:11 22:03:05 53° 53° (NE) 22:07:06 145.980
M-CUBED/EXP-1 PRIME 26 Apr 22:09:28 22:13:08 29° 298° (WNW) 22:16:31 437.505
Oscar 11 26 Apr 22:13:15 22:17:14 38° 263° (W) 22:21:17 .
DELFI C3 26 Apr 22:15:21 22:19:17 66° 76° (ENE) 22:23:17 145.870
O/OREOS (USA 219) 26 Apr 22:29:19 22:31:50 15° 261° (W) 22:34:21 437.305
BEESAT 2 26 Apr 22:30:38 22:32:25 12° 37° (NE) 22:34:12 435.950
BEESAT 3 26 Apr 22:30:42 22:34:01 24° 45° (NE) 22:37:18 437.485
UWE-3 26 Apr 22:35:25 22:36:11 10° 271° (W) 22:36:57 435.000/436.395/437.385
OBJECT BX 26 Apr 22:56:10 22:59:41 49° 260° (W) 23:03:14 145.990 - 145.960
PRISM 26 Apr 23:21:14 23:25:24 74° 101° (ESE) 23:29:31 437.425
NO-84 26 Apr 23:24:03 23:24:59 11° 348° (NNW) 23:25:54 435.350 FM
TIGRISAT 26 Apr 23:34:11 23:38:25 58° 100° (E) 23:42:41 435.000
ESTCUBE 1 26 Apr 23:36:59 23:41:07 37° 70° (ENE) 23:45:17 437.505/2401.250
AO-85 26 Apr 23:40:49 23:43:04 15° 249° (WSW) 23:45:23 145.980
VELOX 1 26 Apr 23:51:20 23:54:05 16° 63° (ENE) 23:56:51 145.980
UNISAT 6 26 Apr 23:55:27 23:59:44 75° 285° (WNW) 00:04:03 437.425
FO-29 26 Apr 23:59:20 00:04:33 76° 103° (ESE) 00:10:05 435.910
LO-87 26 Apr 23:59:31 00:03:08 64° 259° (W) 00:06:46 145.935 - 145.965
BEESAT 2 27 Apr 00:06:45 00:10:50 82° 55° (NE) 00:14:53 435.950
BEESAT 3 27 Apr 00:07:59 00:11:42 36° 243° (WSW) 00:15:22 437.485
POLYITAN 1 27 Apr 00:09:17 00:09:49 10° 89° (E) 00:10:22 437.675
AIST 2D 27 Apr 00:11:49 00:14:26 19° 94° (E) 00:17:04 435.315
QB50P2 27 Apr 00:14:30 00:16:35 13° 91° (E) 00:18:40 145.880/145.840
50 SAT 27 Apr 00:33:54 00:36:30 20° 68° (ENE) 00:39:06 437.505
NANOSAT C BR1 27 Apr 00:35:31 00:38:32 19° 93° (E) 00:41:33 145.865
DX 1 27 Apr 00:42:06 00:45:24 21° 65° (ENE) 00:48:43 434.975-435.025
SPROUT 27 Apr 00:51:10 00:55:22 59° 73° (ENE) 00:59:34 437.525
PRISM 27 Apr 00:58:54 01:00:04 11° 300° (WNW) 01:01:14 437.425
EO-79 27 Apr 01:02:41 01:06:41 41° 99° (E) 01:10:39 145.935-145.965
NO-84 27 Apr 01:03:19 01:03:44 10° 10° (N) 01:04:09 435.350 FM
DUCHIFAT 1 27 Apr 01:04:36 01:08:27 35° 98° (E) 01:12:18 145.980
TIGRISAT 27 Apr 01:12:26 01:14:39 14° 297° (WNW) 01:16:52 435.000
ESTCUBE 1 27 Apr 01:14:32 01:18:01 22° 266° (W) 01:21:33 437.505/2401.250
VELOX 1 27 Apr 01:25:44 01:30:06 54° 260° (W) 01:34:29 145.980
POLYITAN 1 27 Apr 01:41:54 01:46:04 69° 285° (WNW) 01:50:14 437.675
UKube-1 27 Apr 01:43:34 01:47:50 65° 74° (ENE) 01:52:09 .
AIST 2D 27 Apr 01:44:42 01:47:38 25° 290° (WNW) 01:50:33 435.315
FO-29 27 Apr 01:46:19 01:49:06 15° 300° (WNW) 01:51:56 435.910
QB50P2 27 Apr 01:48:35 01:52:41 53° 287° (WNW) 01:56:47 145.880/145.840
BUGSAT 1 27 Apr 02:05:36 02:09:34 54° 101° (E) 02:13:29 437.445
50 SAT 27 Apr 02:06:23 02:09:17 24° 264° (W) 02:12:13 437.505
NANOSAT C BR1 27 Apr 02:10:31 02:14:22 36° 290° (WNW) 02:18:12 145.865
Oscar 19 27 Apr 02:16:36 02:20:54 26° 94° (E) 02:25:11 437.125/150
DX 1 27 Apr 02:17:15 02:21:20 38° 262° (W) 02:25:27 434.975-435.025
Gurwin Techsat 1B 27 Apr 02:20:35 02:23:54 17° 91° (E) 02:27:12 435.225
SPROUT 27 Apr 02:29:47 02:31:38 13° 270° (W) 02:33:30 437.525
EO-79 27 Apr 02:39:17 02:42:08 18° 295° (WNW) 02:44:58 145.935-145.965
NO-84 27 Apr 02:39:24 02:42:05 30° 31° (NNE) 02:44:40 435.350 FM
DUCHIFAT 1 27 Apr 02:40:49 02:43:54 20° 294° (WNW) 02:46:58 145.980
BEESAT 27 Apr 02:41:52 02:45:39 24° 65° (ENE) 02:49:28 436.000
PCSat 27 Apr 02:46:10 02:51:10 40° 112° (ESE) 02:56:14 145.827
ITUPSAT 1 27 Apr 03:21:36 03:26:15 57° 72° (ENE) 03:30:56 437.325
UKube-1 27 Apr 03:22:41 03:24:17 12° 270° (W) 03:25:54 .
BUGSAT 1 27 Apr 03:42:32 03:44:28 13° 297° (WNW) 03:46:22 437.445
ITAMSAT 1 27 Apr 03:44:05 03:46:53 14° 90° (E) 03:49:38 435.822/435.867
Oscar 19 27 Apr 03:55:28 04:00:20 41° 291° (WNW) 04:05:11 437.125/150
Gurwin Techsat 1B 27 Apr 03:59:02 04:04:18 65° 288° (WNW) 04:09:33 435.225
AO-7 27 Apr 04:03:14 04:09:51 26° 94° (E) 04:16:26 .
MOZHAYETS 4 27 Apr 04:09:12 04:13:45 82° 75° (ENE) 04:18:19
YUBILEINY 27 Apr 04:11:21 04:18:23 29° 82° (E) 04:25:25 435.215
NO-84 27 Apr 04:17:11 04:19:27 21° 230° (SW) 04:21:41 435.350 FM
BEESAT 27 Apr 04:18:48 04:23:13 38° 262° (W) 04:27:40 436.000
KKS-1 27 Apr 04:20:29 04:23:51 21° 65° (ENE) 04:27:14 437.445
PCSat 27 Apr 04:29:47 04:34:38 33° 311° (NW) 04:39:32 145.827
STARS 27 Apr 04:51:30 04:54:41 20° 64° (ENE) 04:57:52 437.465
CUBESAT XI-V 27 Apr 05:01:04 05:05:32 50° 72° (ENE) 05:10:04 437.345
ITUPSAT 1 27 Apr 05:01:34 05:04:26 16° 269° (W) 05:07:18 437.325
ITAMSAT 1 27 Apr 05:21:41 05:26:51 71° 286° (WNW) 05:31:59 435.822/435.867
AO-7 27 Apr 05:55:00 06:03:16 72° 292° (WNW) 06:11:32 .
KKS-1 27 Apr 05:55:57 06:00:09 39° 261° (W) 06:04:22 437.445
YUBILEINY 27 Apr 06:05:55 06:14:30 63° 282° (WNW) 06:23:10 435.215
STARS 27 Apr 06:26:32 06:30:43 42° 261° (W) 06:34:56 437.465
CUTE-I 27 Apr 06:34:25 06:36:35 12° 88° (E) 06:38:44 437.470
SO-50 27 Apr 06:34:46 06:38:33 25° 113° (ESE) 06:42:19 436.795
DOVE 4 27 Apr 06:35:01 06:38:23 20° 91° (E) 06:41:36 437.250
XW-2D 27 Apr 06:38:30 06:39:53 12° 90° (E) 06:41:16 145.860 - 145.880
CUBESAT XI-V 27 Apr 06:40:08 06:43:11 17° 269° (W) 06:46:17 437.345
RS-15 27 Apr 06:42:36 06:51:49 27° 101° (E) 07:01:12 29.354- 29.394
XW-2B 27 Apr 06:44:57 06:46:54 14° 91° (E) 06:48:51 145.730 - 145.750
KAITUO 1B 27 Apr 06:53:30 06:55:26 14° 91° (E) 06:57:23 145.475/437.950
LilacSat-2 27 Apr 06:55:41 06:58:31 19° 94° (E) 07:01:21 437.200
XW-2C 27 Apr 06:56:12 06:58:57 19° 93° (E) 07:01:41 145.795 - 145.815
ITAMSAT 1 27 Apr 07:04:57 07:05:22 10° 305° (NW) 07:05:47 435.822/435.867
M-CUBED/EXP-1 PRIME 27 Apr 07:20:24 07:24:43 40° 65° (ENE) 07:29:06 437.505
XW-2F 27 Apr 07:20:46 07:24:16 34° 97° (E) 07:27:47 145.980 - 146.000
STRAND 1 27 Apr 07:23:53 07:28:29 35° 68° (ENE) 07:33:06 437.568
NUDT-PHONESAT 27 Apr 07:30:52 07:34:22 37° 98° (E) 07:37:50 437.300
AO-7 27 Apr 07:49:32 07:54:40 18° 313° (NW) 07:59:47 .
CUTE 1.7 + AOD 2 27 Apr 07:49:41 07:50:45 11° 89° (E) 07:51:50 437.475
SEEDS 27 Apr 08:08:30 08:09:51 11° 89° (E) 08:11:13 437.485
YUBILEINY 27 Apr 08:09:45 08:13:23 13° 306° (NW) 08:17:03 435.215
XW-2D 27 Apr 08:10:39 08:14:22 50° 286° (WNW) 08:18:04 145.860 - 145.880
CUTE-I 27 Apr 08:11:56 08:17:17 83° 285° (WNW) 08:22:35 437.470
DOVE 4 27 Apr 08:11:57 08:16:17 39° 290° (WNW) 08:20:22 437.250
SO-50 27 Apr 08:14:29 08:18:50 40° 311° (NW) 08:23:09 436.795
XW-2B 27 Apr 08:17:40 08:21:18 43° 287° (WNW) 08:24:56 145.730 - 145.750
HO-68 27 Apr 08:24:55 08:31:26 35° 97° (E) 08:37:54 435.675
KAITUO 1B 27 Apr 08:26:04 08:29:39 42° 287° (WNW) 08:33:14 145.475/437.950
LilacSat-2 27 Apr 08:29:27 08:32:50 30° 290° (WNW) 08:36:14 437.200
XW-2C 27 Apr 08:29:48 08:33:12 31° 289° (WNW) 08:36:34 145.795 - 145.815
UWE-3 27 Apr 08:45:24 08:47:08 12° 90° (E) 08:48:53 435.000/436.395/437.385
RS-15 27 Apr 08:50:37 09:02:45 88° 304° (NW) 09:15:14 29.354- 29.394
M-CUBED/EXP-1 PRIME 27 Apr 08:55:30 08:59:13 24° 261° (W) 09:02:59 437.505
XW-2F 27 Apr 08:55:37 08:58:10 17° 293° (WNW) 09:00:43 145.980 - 146.000
CUBEBUG 2 27 Apr 08:58:09 09:01:45 28° 96° (E) 09:05:24 437.445
STRAND 1 27 Apr 09:03:18 09:07:41 29° 264° (W) 09:12:06 437.568
Tancredo 1 27 Apr 09:03:44 09:06:45 54° 142° (SE) 09:09:48 437.200
NUDT-PHONESAT 27 Apr 09:05:41 09:07:58 16° 294° (WNW) 09:10:16 437.300
XW-2A 27 Apr 09:05:55 09:09:17 89° 112° (ESE) 09:12:39 145.665 - 145.685
AAUSAT CUBESAT 2 27 Apr 09:12:55 09:16:33 28° 95° (E) 09:20:10 437.432
UNISAT 6 27 Apr 09:21:51 09:22:58 11° 61° (ENE) 09:24:05 437.425
CUTE 1.7 + AOD 2 27 Apr 09:22:46 09:27:02 69° 285° (WNW) 09:31:18 437.475
ISS 27 Apr 09:28:51 09:32:06 75° 144° (SE) 09:35:22 437.550
ZACube-1 27 Apr 09:38:03 09:41:40 27° 96° (E) 09:45:20 437.345
SEEDS 27 Apr 09:41:44 09:45:57 65° 286° (WNW) 09:50:10 437.485
AO-73 27 Apr 09:44:31 09:48:13 29° 96° (E) 09:51:58 145.935
CUTE-I 27 Apr 09:54:22 09:56:29 12° 303° (WNW) 09:58:35 437.470
Oscar 11 27 Apr 09:59:18 10:03:18 35° 97° (E) 10:07:17 .
PRISM 27 Apr 10:10:47 10:14:51 57° 73° (ENE) 10:18:58 437.425
HO-68 27 Apr 10:12:27 10:19:16 47° 295° (WNW) 10:26:04 435.675
FO-29 27 Apr 10:12:32 10:18:06 36° 68° (ENE) 10:23:10 435.910
UWE-3 27 Apr 10:19:49 10:23:56 58° 286° (WNW) 10:28:07 435.000/436.395/437.385
OBJECT BX 27 Apr 10:25:32 10:27:15 13° 91° (E) 10:28:57 145.990 - 145.960
TIGRISAT 27 Apr 10:33:22 10:37:38 55° 74° (ENE) 10:41:52 435.000
CUBEBUG 2 27 Apr 10:34:52 10:38:18 25° 292° (WNW) 10:41:44 437.445
Tancredo 1 27 Apr 10:40:09 10:42:49 26° 340° (NNW) 10:45:30 437.200
AAUSAT CUBESAT 2 27 Apr 10:48:27 10:51:54 25° 292° (WNW) 10:55:21 437.432
UNISAT 6 27 Apr 10:54:40 10:59:04 79° 257° (WSW) 11:03:24 437.425
O/OREOS (USA 219) 27 Apr 11:01:13 11:05:43 57° 108° (ESE) 11:10:14 437.305
ISS 27 Apr 11:06:08 11:08:53 24° 343° (NNW) 11:11:37 437.550
RS-15 27 Apr 11:06:13 11:17:11 36° 330° (NNW) 11:28:17 29.354- 29.394
QB50P2 27 Apr 11:08:36 11:10:20 12° 62° (ENE) 11:12:04 145.880/145.840
ZACube-1 27 Apr 11:14:21 11:17:53 27° 291° (WNW) 11:21:28 437.345
AO-73 27 Apr 11:20:54 11:24:21 25° 292° (WNW) 11:27:52 145.935
DELFI C3 27 Apr 11:26:08 11:30:10 83° 284° (WNW) 11:34:09 145.870
NANOSAT C BR1 27 Apr 11:28:45 11:31:27 17° 64° (ENE) 11:34:10 145.865
PCSat 27 Apr 11:32:55 11:38:02 40° 52° (NE) 11:43:07 145.827
Oscar 11 27 Apr 11:35:51 11:39:13 22° 294° (WNW) 11:42:35 .
PRISM 27 Apr 11:48:40 11:50:29 12° 269° (W) 11:52:18 437.425
EO-79 27 Apr 11:55:40 11:59:29 34° 70° (ENE) 12:03:19 145.935-145.965
DUCHIFAT 1 27 Apr 11:57:03 12:00:42 29° 69° (ENE) 12:04:21 145.980
FO-29 27 Apr 11:57:31 12:03:11 34° 262° (W) 12:08:20 435.910
OBJECT BX 27 Apr 11:57:40 12:01:09 41° 287° (WNW) 12:04:36 145.990 - 145.960
TIGRISAT 27 Apr 12:12:27 12:14:39 14° 269° (W) 12:16:49 435.000
AO-85 27 Apr 12:16:25 12:18:31 13° 111° (ESE) 12:20:33 145.980
Tancredo 1 27 Apr 12:17:28 12:19:29 16° 0° (N) 12:21:29 437.200
AIST 2D 27 Apr 12:18:59 12:22:25 63° 260° (W) 12:25:53 435.315
POLYITAN 1 27 Apr 12:34:41 12:38:54 86° 258° (WSW) 12:43:08 437.675
QB50P2 27 Apr 12:41:23 12:45:34 67° 258° (WSW) 12:49:47 145.880/145.840
O/OREOS (USA 219) 27 Apr 12:42:24 12:45:30 18° 307° (NW) 12:48:37 437.305
ISS 27 Apr 12:43:54 12:46:10 17° 3° (N) 12:48:27 437.550
BUGSAT 1 27 Apr 12:55:42 12:59:36 42° 72° (ENE) 13:03:29 437.445
LO-87 27 Apr 12:59:06 13:02:36 56° 286° (WNW) 13:06:04 145.935 - 145.965
NANOSAT C BR1 27 Apr 13:02:47 13:06:49 45° 261° (W) 13:10:52 145.865
ESTCUBE 1 27 Apr 13:04:43 13:09:17 73° 102° (ESE) 13:13:49 437.505/2401.250
VELOX 1 27 Apr 13:15:13 13:18:56 26° 95° (E) 13:22:37 145.980
PCSat 27 Apr 13:16:33 13:21:18 31° 250° (WSW) 13:26:02 145.827
RS-15 27 Apr 13:24:55 13:34:44 26° 5° (N) 13:44:24 29.354- 29.394
50 SAT 27 Apr 13:29:07 13:31:34 18° 94° (E) 13:34:00 437.505
EO-79 27 Apr 13:32:09 13:35:20 21° 266° (W) 13:38:31 145.935-145.965
DUCHIFAT 1 27 Apr 13:32:57 13:36:22 24° 265° (W) 13:39:47 145.980
Oscar 19 27 Apr 13:33:59 13:38:47 40° 68° (ENE) 13:43:36 437.125/150
Gurwin Techsat 1B 27 Apr 13:41:59 13:46:32 30° 65° (ENE) 13:51:05 435.225
Tancredo 1 27 Apr 13:53:25 13:56:08 26° 20° (NNE) 13:58:49 437.200
AO-85 27 Apr 13:54:15 13:58:28 61° 305° (NW) 14:02:29 145.980
BEESAT 3 27 Apr 13:58:21 14:01:42 27° 114° (ESE) 14:05:06 437.485
BEESAT 2 27 Apr 14:01:36 14:02:39 11° 108° (ESE) 14:03:41 435.950
DX 1 27 Apr 14:04:24 14:08:21 32° 97° (E) 14:12:15 434.975-435.025
SPROUT 27 Apr 14:11:38 14:15:53 79° 285° (WNW) 14:20:07 437.525
ISS 27 Apr 14:20:21 14:23:22 33° 23° (NNE) 14:26:22 437.550
YUBILEINY 27 Apr 14:20:25 14:24:55 15° 56° (NE) 14:29:24 435.215
BUGSAT 1 27 Apr 14:32:29 14:35:08 16° 267° (W) 14:37:47 437.445
ESTCUBE 1 27 Apr 14:43:26 14:45:28 13° 299° (WNW) 14:47:31 437.505/2401.250
VELOX 1 27 Apr 14:51:29 14:55:22 30° 292° (WNW) 14:59:13 145.980
50 SAT 27 Apr 15:01:32 15:04:31 26° 290° (WNW) 15:07:28 437.505
ITAMSAT 1 27 Apr 15:02:15 15:06:28 26° 64° (ENE) 15:10:41 435.822/435.867
AO-7 27 Apr 15:02:57 15:10:27 40° 59° (ENE) 15:17:58 .
SO-50 27 Apr 15:04:35 15:08:36 31° 46° (NE) 15:12:35 436.795
UKube-1 27 Apr 15:05:30 15:09:51 77° 285° (WNW) 15:14:08 .
Oscar 19 27 Apr 15:13:57 15:18:12 26° 266° (W) 15:22:30 437.125/150
Gurwin Techsat 1B 27 Apr 15:21:25 15:26:20 38° 263° (W) 15:31:17 435.225
ITUPSAT 1 27 Apr 15:22:51 15:25:12 13° 90° (E) 15:27:33 437.325
Tancredo 1 27 Apr 15:29:09 15:32:10 52° 219° (SW) 15:35:11 437.200
BEESAT 3 27 Apr 15:35:43 15:39:13 29° 313° (NW) 15:42:46 437.485
BEESAT 2 27 Apr 15:35:51 15:39:48 70° 305° (NW) 15:43:50 435.950
RS-15 27 Apr 15:39:53 15:51:35 45° 38° (NE) 16:02:48 29.354- 29.394
DX 1 27 Apr 15:40:51 15:44:22 24° 294° (WNW) 15:47:51 434.975-435.025
ISS 27 Apr 15:56:50 15:59:53 38° 221° (SW) 16:02:56 437.550
MOZHAYETS 4 27 Apr 16:04:14 16:07:25 18° 92° (E) 16:10:35
YUBILEINY 27 Apr 16:14:49 16:23:35 69° 79° (E) 16:32:21 435.215
BEESAT 27 Apr 16:17:33 16:22:11 49° 100° (E) 16:26:47 436.000
ITAMSAT 1 27 Apr 16:40:48 16:45:42 42° 261° (W) 16:50:38 435.822/435.867
SO-50 27 Apr 16:44:59 16:49:03 34° 244° (WSW) 16:53:06 436.795
